When you browse on this site, cookies collect data to enhance your experience and personalize the content and advertising you see.
Visit our Privacy Policy to learn more. By continuing to use the site, you agree to this use of cookies and data.
  • în România
  • Lista ţărilor
  • Pe 7 zile
  • Temperatura apei
  • Meteo pe hartă
  • Widget-uri
  • user-avatar
    Intrare

    Meteo pe oră la Bali

    Astăzi, 31 Martie, Marţi

    Timp Temperatura Precipitaţii Vânt Presiune Umiditate
    00:00 +26°C° 0.6 mm 2 m/s 747 mmHg 90%
    01:00 +26°C° 0.6 mm 1 m/s 746 mmHg 89%
    02:00 +26°C° 0 mm 1 m/s 746 mmHg 87%
    03:00 +26°C° 0.3 mm 1 m/s 746 mmHg 88%
    04:00 +26°C° 0.3 mm 1 m/s 746 mmHg 88%
    05:00 +26°C° 0.3 mm 1 m/s 746 mmHg 88%
    06:00 +27°C° 0.3 mm 1 m/s 746 mmHg 86%
    07:00 +28°C° 0.3 mm 1 m/s 747 mmHg 84%
    08:00 +29°C° 0 mm 1 m/s 748 mmHg 82%
    09:00 +30°C° 0.6 mm 1 m/s 748 mmHg 79%
    10:00 +31°C° 0.6 mm 1 m/s 748 mmHg 77%
    11:00 +32°C° 0.6 mm 1 m/s 748 mmHg 74%
    12:00 +32°C° 0.7 mm 2 m/s 747 mmHg 75%
    13:00 +32°C° 0.7 mm 2 m/s 746 mmHg 75%
    14:00 +32°C° 0.7 mm 2 m/s 746 mmHg 76%
    15:00 +31°C° 0.7 mm 2 m/s 745 mmHg 78%
    16:00 +31°C° 0.7 mm 2 m/s 745 mmHg 81%
    17:00 +30°C° 0.7 mm 2 m/s 745 mmHg 83%
    18:00 +29°C° 0.1 mm 2 m/s 745 mmHg 86%
    19:00 +28°C° 0.1 mm 2 m/s 746 mmHg 89%
    20:00 +27°C° 0.1 mm 2 m/s 746 mmHg 92%
    21:00 +27°C° 0 mm 2 m/s 747 mmHg 91%
    22:00 +27°C° 0 mm 2 m/s 747 mmHg 91%
    23:00 +27°C° 0 mm 1 m/s 747 mmHg 90%

    Mâine, 1 Aprilie, Miercuri

    Timp Temperatura Precipitaţii Vânt Presiune Umiditate
    00:00 +26°C° 0.1 mm 1 m/s 747 mmHg 89%
    01:00 +26°C° 0.1 mm 1 m/s 747 mmHg 87%
    02:00 +26°C° 0.1 mm 1 m/s 746 mmHg 86%
    03:00 +26°C° 0 mm 1 m/s 746 mmHg 85%
    04:00 +26°C° 0 mm 1 m/s 746 mmHg 84%
    05:00 +25°C° 0 mm 1 m/s 746 mmHg 83%
    06:00 +26°C° 0 mm 1 m/s 746 mmHg 80%
    07:00 +28°C° 0 mm 1 m/s 747 mmHg 78%
    08:00 +29°C° 0 mm 1 m/s 748 mmHg 76%
    09:00 +30°C° 0 mm 1 m/s 748 mmHg 70%
    10:00 +32°C° 0 mm 1 m/s 748 mmHg 65%
    11:00 +33°C° 0 mm 1 m/s 748 mmHg 59%
    12:00 +32°C° 0.4 mm 2 m/s 747 mmHg 65%
    13:00 +32°C° 0.4 mm 2 m/s 746 mmHg 71%
    14:00 +31°C° 0.4 mm 2 m/s 746 mmHg 78%
    15:00 +31°C° 0.9 mm 2 m/s 746 mmHg 80%
    16:00 +30°C° 0.9 mm 2 m/s 746 mmHg 83%
    17:00 +30°C° 0.9 mm 2 m/s 745 mmHg 86%
    18:00 +29°C° 0.6 mm 2 m/s 746 mmHg 88%
    19:00 +28°C° 0.6 mm 2 m/s 746 mmHg 90%
    20:00 +27°C° 0.6 mm 2 m/s 747 mmHg 92%
    21:00 +27°C° 0 mm 2 m/s 747 mmHg 92%
    22:00 +27°C° 0 mm 2 m/s 747 mmHg 92%
    23:00 +26°C° 0 mm 2 m/s 747 mmHg 92%

    Poimâine, 2 Aprilie, Joi

    Timp Temperatura Precipitaţii Vânt Presiune Umiditate
    00:00 +26°C° 0 mm 1 m/s 747 mmHg 91%
    01:00 +26°C° 0 mm 1 m/s 747 mmHg 91%
    02:00 +26°C° 0 mm 1 m/s 747 mmHg 90%
    03:00 +26°C° 0.1 mm 1 m/s 746 mmHg 91%
    04:00 +26°C° 0.1 mm 1 m/s 746 mmHg 91%
    05:00 +26°C° 0.1 mm 1 m/s 746 mmHg 91%
    06:00 +27°C° 0 mm 1 m/s 746 mmHg 89%
    07:00 +28°C° 0 mm 1 m/s 747 mmHg 87%
    08:00 +28°C° 0 mm 1 m/s 747 mmHg 85%
    09:00 +30°C° 0 mm 1 m/s 747 mmHg 77%
    10:00 +31°C° 0 mm 1 m/s 747 mmHg 70%
    11:00 +34°C° 0 mm 2 m/s 747 mmHg 62%
    12:00 +32°C° 0.6 mm 2 m/s 747 mmHg 70%
    13:00 +31°C° 0.6 mm 2 m/s 746 mmHg 77%
    14:00 +30°C° 0.6 mm 2 m/s 745 mmHg 85%
    15:00 +30°C° 0.8 mm 2 m/s 745 mmHg 87%
    16:00 +29°C° 0.8 mm 2 m/s 745 mmHg 88%
    17:00 +29°C° 0.8 mm 2 m/s 745 mmHg 90%
    18:00 +29°C° 0.2 mm 2 m/s 745 mmHg 91%
    19:00 +28°C° 0.2 mm 2 m/s 746 mmHg 92%
    20:00 +27°C° 0.2 mm 2 m/s 746 mmHg 93%
    21:00 +27°C° 0.3 mm 2 m/s 747 mmHg 93%
    22:00 +27°C° 0.3 mm 2 m/s 747 mmHg 92%
    23:00 +27°C° 0.3 mm 1 m/s 747 mmHg 92%

    3 Aprilie, Vineri

    Timp Temperatura Precipitaţii Vânt Presiune Umiditate
    00:00 +27°C° 1 mm 1 m/s 747 mmHg 92%
    01:00 +27°C° 1 mm 1 m/s 747 mmHg 93%
    02:00 +26°C° 1 mm 1 m/s 746 mmHg 93%
    03:00 +26°C° 0.3 mm 1 m/s 746 mmHg 92%
    04:00 +26°C° 0.3 mm 1 m/s 746 mmHg 92%
    05:00 +26°C° 0.3 mm 1 m/s 746 mmHg 91%
    06:00 +27°C° 0.1 mm 1 m/s 746 mmHg 90%
    07:00 +28°C° 0.1 mm 1 m/s 747 mmHg 88%
    08:00 +28°C° 0.1 mm 1 m/s 747 mmHg 86%
    09:00 +30°C° 0.1 mm 1 m/s 747 mmHg 78%
    10:00 +32°C° 0.1 mm 1 m/s 747 mmHg 70%
    11:00 +34°C° 0.1 mm 2 m/s 747 mmHg 61%
    12:00 +32°C° 0.9 mm 2 m/s 747 mmHg 68%
    13:00 +32°C° 0.9 mm 2 m/s 746 mmHg 75%
    14:00 +31°C° 0.9 mm 2 m/s 745 mmHg 81%
    15:00 +30°C° 1.4 mm 2 m/s 745 mmHg 83%
    16:00 +30°C° 1.4 mm 2 m/s 745 mmHg 85%
    17:00 +30°C° 1.4 mm 2 m/s 745 mmHg 87%
    18:00 +29°C° 1.2 mm 2 m/s 745 mmHg 88%
    19:00 +28°C° 1.2 mm 2 m/s 746 mmHg 90%
    20:00 +27°C° 1.2 mm 2 m/s 746 mmHg 92%
    21:00 +27°C° 0.1 mm 2 m/s 747 mmHg 91%
    22:00 +27°C° 0.1 mm 1 m/s 747 mmHg 91%
    23:00 +26°C° 0.1 mm 1 m/s 747 mmHg 91%

    4 Aprilie, Sâmbătă

    Timp Temperatura Precipitaţii Vânt Presiune Umiditate
    00:00 +26°C° 0 mm 1 m/s 747 mmHg 90%
    01:00 +26°C° 0 mm 1 m/s 746 mmHg 90%
    02:00 +26°C° 0 mm 1 m/s 746 mmHg 90%
    03:00 +26°C° 0.1 mm 1 m/s 746 mmHg 90%
    04:00 +26°C° 0.1 mm 1 m/s 746 mmHg 90%
    05:00 +26°C° 0.1 mm 1 m/s 746 mmHg 90%
    06:00 +27°C° 0 mm 1 m/s 746 mmHg 87%
    07:00 +28°C° 0 mm 1 m/s 747 mmHg 85%
    08:00 +28°C° 0 mm 1 m/s 747 mmHg 83%
    09:00 +30°C° 0.2 mm 1 m/s 747 mmHg 79%
    10:00 +31°C° 0.2 mm 1 m/s 747 mmHg 75%
    11:00 +32°C° 0.2 mm 2 m/s 747 mmHg 71%
    12:00 +32°C° 1.2 mm 2 m/s 747 mmHg 74%
    13:00 +31°C° 1.2 mm 2 m/s 746 mmHg 77%
    14:00 +31°C° 1.2 mm 2 m/s 746 mmHg 81%
    15:00 +31°C° 1.4 mm 2 m/s 746 mmHg 82%
    16:00 +30°C° 1.4 mm 1 m/s 746 mmHg 83%
    17:00 +30°C° 1.4 mm 1 m/s 746 mmHg 85%
    18:00 +29°C° 0.4 mm 1 m/s 746 mmHg 86%
    19:00 +28°C° 0.4 mm 1 m/s 747 mmHg 88%
    20:00 +27°C° 0.4 mm 1 m/s 747 mmHg 90%
    21:00 +27°C° 0.1 mm 1 m/s 747 mmHg 89%
    22:00 +27°C° 0.1 mm 1 m/s 747 mmHg 89%
    23:00 +26°C° 0.1 mm 1 m/s 747 mmHg 89%

    5 Aprilie, Duminică

    Timp Temperatura Precipitaţii Vânt Presiune Umiditate
    00:00 +26°C° 0 mm 1 m/s 747 mmHg 89%
    01:00 +26°C° 0 mm 1 m/s 747 mmHg 89%
    02:00 +26°C° 0 mm 1 m/s 747 mmHg 88%
    03:00 +26°C° 0 mm 1 m/s 747 mmHg 88%
    04:00 +26°C° 0 mm 1 m/s 746 mmHg 88%
    05:00 +26°C° 0 mm 1 m/s 746 mmHg 88%
    06:00 +27°C° 0 mm 1 m/s 747 mmHg 85%
    07:00 +28°C° 0 mm 1 m/s 747 mmHg 82%
    08:00 +29°C° 0 mm 1 m/s 748 mmHg 79%
    09:00 +30°C° 0.1 mm 1 m/s 748 mmHg 74%
    10:00 +31°C° 0.1 mm 1 m/s 748 mmHg 70%
    11:00 +32°C° 0.1 mm 2 m/s 748 mmHg 65%
    12:00 +32°C° 0.7 mm 2 m/s 747 mmHg 69%
    13:00 +32°C° 0.7 mm 2 m/s 747 mmHg 74%
    14:00 +31°C° 0.7 mm 2 m/s 746 mmHg 78%
    15:00 +31°C° 0.9 mm 1 m/s 746 mmHg 80%
    16:00 +30°C° 0.9 mm 1 m/s 746 mmHg 82%
    17:00 +30°C° 0.9 mm 1 m/s 746 mmHg 84%
    18:00 +29°C° 0.2 mm 1 m/s 747 mmHg 86%
    19:00 +28°C° 0.2 mm 1 m/s 747 mmHg 88%
    20:00 +27°C° 0.2 mm 1 m/s 747 mmHg 90%
    21:00 +27°C° 0 mm 1 m/s 747 mmHg 90%
    22:00 +27°C° 0 mm 2 m/s 748 mmHg 90%
    23:00 +26°C° 0 mm 2 m/s 748 mmHg 90%
    Arată mai mult